TimeMDT,TemperatureF,Dew PointF,Humidity,Sea Level PressureIn,VisibilityMPH,Wind Direction,Wind SpeedMPH,Gust SpeedMPH,PrecipitationIn,Events,Conditions,WindDirDegrees,DateUTC
12:53 AM,60.1,19.9,21,29.89,10.0,NW,3.5,-,N/A,,Clear,310,2012-10-06 06:53:00
1:53 AM,61.0,17.1,18,29.89,10.0,Calm,Calm,-,N/A,,Clear,0,2012-10-06 07:53:00
2:53 AM,57.0,19.0,23,29.91,10.0,West,4.6,-,N/A,,Clear,270,2012-10-06 08:53:00
4:53 AM,53.1,21.0,29,29.90,10.0,WSW,5.8,-,N/A,,Clear,250,2012-10-06 10:53:00
5:53 AM,54.0,19.0,25,29.91,10.0,Calm,Calm,-,N/A,,Clear,0,2012-10-06 11:53:00
6:53 AM,52.0,19.0,27,29.93,10.0,Calm,Calm,-,N/A,,Clear,0,2012-10-06 12:53:00
8:53 AM,55.0,18.0,23,29.97,10.0,Calm,Calm,-,N/A,,Clear,0,2012-10-06 14:53:00
9:53 AM,61.0,21.9,22,29.96,10.0,West,4.6,-,N/A,,Clear,270,2012-10-06 15:53:00
10:53 AM,64.9,19.0,17,29.96,10.0,West,8.1,-,N/A,,Clear,260,2012-10-06 16:53:00
11:53 AM,70.0,12.9,11,29.94,10.0,West,9.2,18.4,N/A,,Clear,270,2012-10-06 17:53:00
12:53 PM,71.1,12.9,11,29.91,10.0,WNW,16.1,25.3,N/A,,Clear,290,2012-10-06 18:53:00
1:53 PM,72.0,15.1,11,29.87,10.0,West,17.3,26.5,N/A,,Clear,280,2012-10-06 19:53:00
2:53 PM,72.0,14.0,11,29.86,10.0,WNW,19.6,28.8,N/A,,Clear,290,2012-10-06 20:53:00
3:53 PM,73.0,12.0,10,29.85,10.0,NW,19.6,33.4,N/A,,Clear,310,2012-10-06 21:53:00
4:53 PM,72.0,9.0,9,29.85,10.0,WNW,19.6,32.2,N/A,,Clear,290,2012-10-06 22:53:00
5:53 PM,69.1,8.1,9,29.85,10.0,NW,16.1,25.3,N/A,,Clear,310,2012-10-06 23:53:00
6:53 PM,66.0,10.9,12,29.88,10.0,NW,10.4,-,N/A,,Clear,310,2012-10-07 00:53:00
7:53 PM,64.0,10.9,13,29.91,10.0,NW,12.7,-,N/A,,Clear,310,2012-10-07 01:53:00
8:53 PM,59.0,6.1,12,29.91,10.0,North,5.8,-,N/A,,Clear,10,2012-10-07 02:53:00
9:53 PM,60.1,3.0,10,29.88,10.0,Calm,Calm,-,N/A,,Clear,0,2012-10-07 03:53:00
11:53 PM,52.0,5.0,15,29.89,10.0,NNE,5.8,-,N/A,,Scattered Clouds,30,2012-10-07 05:53:00